1489611600.1,63473,9.88,73286.8,-11.49,-12.39,-12.89,0,*63
1489611601.34,63474,9.88,73306.5,-11.49,-12.29,-12.71,0,*62
1489611602.61,63475,9.88,73300.5,-11.51,-12.39,-12.53,0,*6B
1489611603.85,63476,9.88,73320.5,-11.51,-12.25,-12.39,0,*69
1489611605.07,63477,9.81,73274.5,-11.49,-12.21,-12.39,0,*65
1489611606.34,63478,9.88,73294.5,-11.51,-12.21,-12.79,0,*67
1489611607.61,63479,9.88,73286.3,-11.51,-12.21,-12.57,0,*6A
1489611608.85,63480,9.88,73300.8,-11.49,-12.03,-12.53,0,*61
1489611610.11,63481,9.81,73306.3,-11.51,-12.11,-13.07,0,*6A
1489611611.34,63482,9.88,73308.0,-11.49,-12.11,-13.15,0,*63
1489611612.57,63483,9.88,73296.0,-11.49,-12.15,-13.47,0,*61
1489611613.84,63484,9.88,73294.8,-11.51,-12.35,-14.37,0,*6D
1489611615.07,63485,9.88,73302.3,-11.49,-12.47,-14.93,0,*6E
1489611616.31,63486,9.88,73298.0,-11.49,-12.61,-14.65,0,*60
1489611617.59,63487,9.88,73286.8,-11.51,-12.65,-14.43,0,*68
1489611618.86,63488,9.88,73292.5,-11.49,-12.53,-14.05,0,*69
1489611620.09,63489,9.88,73258.8,-11.49,-12.39,-13.33,0,*66
1489611621.31,63490,9.88,73260.8,-11.49,-12.39,-13.19,0,*66
1489611622.52,63491,9.88,73280.3,-11.49,-12.39,-13.73,0,*6B
1489611623.72,63492,9.88,73290.3,-11.49,-12.39,-13.93,0,*66
1489611624.93,63493,9.88,73290.0,-11.49,-12.39,-14.19,0,*62
1489611626.14,63494,9.88,73298.0,-11.49,-12.47,-14.33,0,*64
1489611627.4,63495,9.88,73294.5,-11.49,-12.61,-14.93,0,*6B
1489611628.69,63496,9.88,73296.5,-11.51,-12.65,-14.97,0,*61
1489611629.95,63497,9.88,73266.0,-11.49,-12.65,-15.01,0,*67
1489611631.24,63498,9.88,73274.3,-11.51,-12.79,-15.57,0,*6F
1489611632.46,63499,9.88,73276.5,-11.49,-12.93,-15.67,0,*60
1489611633.69,63500,9.88,73274.8,-11.51,-12.93,-15.67,0,*68
1489611634.91,63501,9.88,73280.5,-11.49,-12.93,-15.53,0,*67
1489611636.15,63502,9.88,73282.3,-11.51,-12.97,-15.67,0,*6E
1489611637.39,63503,9.88,73280.8,-11.51,-12.93,-14.65,0,*68
1489611638.68,63504,9.88,73290.8,-11.51,-12.79,-14.97,0,*66
1489611639.95,63505,9.88,73294.5,-11.51,-12.93,-15.57,0,*6E
1489611641.18,63506,9.88,73312.0,-11.51,-12.93,-15.67,0,*6E
1489611642.42,63507,9.88,73302.8,-11.51,-12.97,-15.11,0,*6A
1489611643.71,63508,9.88,73284.5,-11.51,-12.83,-14.51,0,*65
1489611644.97,63509,9.88,73272.5,-11.51,-12.79,-14.37,0,*61
1489611646.23,63510,9.88,73282.0,-11.55,-12.83,-14.23,0,*6D
1489611647.49,63511,9.88,73290.3,-11.55,-12.71,-14.11,0,*60
1489611648.75,63512,9.88,73294.3,-11.55,-12.65,-14.19,0,*6E
1489611649.99,63513,9.88,73294.0,-11.57,-12.71,-14.23,0,*61
1489611651.26,63514,9.88,73314.5,-11.55,-12.53,-14.11,0,*65
1489611652.52,63515,9.88,73294.5,-11.55,-12.43,-14.05,0,*60
1489611653.73,63516,9.88,73304.3,-11.57,-12.43,-14.37,0,*60
1489611654.99,63517,9.88,73302.5,-11.55,-12.57,-14.69,0,*6D
1489611656.28,63518,9.81,73286.8,-11.55,-12.57,-14.55,0,*6D
1489611657.52,63519,9.88,73290.8,-11.55,-12.43,-14.23,0,*68
1489611658.75,63520,9.88,73284.3,-11.57,-12.61,-14.61,0,*66
1489611660.02,63521,9.88,73282.0,-11.55,-12.53,-14.29,0,*68
1489611661.26,63522,9.88,73288.8,-11.55,-12.43,-14.19,0,*69
1489611662.52,63523,9.88,73282.8,-11.55,-12.57,-14.69,0,*6A
1489611663.78,63524,9.88,73288.5,-11.55,-12.57,-14.11,0,*62
1489611665.05,63525,9.88,73284.8,-11.55,-12.53,-13.51,0,*64
1489611666.26,63526,9.88,73272.0,-11.57,-12.43,-13.55,0,*60
1489611667.46,63527,9.88,73272.0,-11.57,-12.43,-13.43,0,*66
1489611668.74,63528,9.88,73282.8,-11.55,-12.35,-13.19,0,*65
1489611670.01,63529,9.88,73300.5,-11.51,-12.35,-13.19,0,*60
1489611671.27,63530,9.88,73318.0,-11.51,-12.39,-14.05,0,*6E
1489611672.53,63531,9.88,73336.0,-11.51,-12.53,-14.69,0,*69
1489611673.79,63532,9.88,73334.3,-11.51,-12.57,-14.23,0,*60
1489611675.07,63533,9.88,73310.0,-11.51,-12.53,-13.79,0,*6D
1489611676.33,63534,9.88,73268.0,-11.51,-12.43,-13.33,0,*65
1489611677.57,63535,9.88,73228.3,-11.51,-12.39,-13.23,0,*68
1489611678.83,63536,9.88,73252.5,-11.51,-12.35,-12.97,0,*69
1489611680.07,63537,9.88,73344.5,-11.51,-12.25,-13.51,0,*62
1489611681.33,63538,9.88,73336.5,-11.51,-12.39,-14.55,0,*63
1489611682.59,63539,9.88,73330.8,-11.51,-12.39,-14.05,0,*67
1489611683.83,63540,9.88,73324.5,-11.51,-12.39,-14.19,0,*64
1489611685.06,63541,9.88,73334.3,-11.51,-12.43,-14.37,0,*64
1489611686.29,63542,9.88,73322.5,-11.51,-12.43,-14.19,0,*6B
1489611687.59,63543,9.88,73338.5,-11.55,-12.53,-14.05,0,*62
1489611688.85,63544,9.88,73320.0,-11.55,-12.53,-13.51,0,*63
1489611690.12,63545,9.88,73312.8,-11.51,-12.65,-13.19,0,*6F
1489611691.39,63546,9.88,73294.5,-11.55,-12.65,-12.97,0,*6F
1489611692.67,63547,9.88,73300.3,-11.55,-12.57,-12.65,0,*62
1489611693.94,63548,9.88,73282.3,-11.55,-12.43,-12.53,0,*6D
1489611695.21,63549,9.88,73292.3,-11.55,-12.25,-12.53,0,*6C
1489611696.48,63550,9.88,73274.5,-11.55,-12.21,-12.53,0,*60
1489611697.75,63551,9.88,73286.8,-11.55,-12.21,-12.57,0,*65
1489611699.01,63552,9.88,73288.5,-11.55,-12.21,-13.19,0,*6D
1489611700.25,63553,9.88,73274.0,-11.55,-12.25,-13.07,0,*67
1489611701.49,63554,9.88,73252.8,-11.57,-12.21,-12.57,0,*62
1489611702.71,63555,9.88,73280.5,-11.57,-12.29,-13.23,0,*69
1489611703.94,63556,9.88,73286.8,-11.51,-12.25,-14.11,0,*66
1489611705.21,63557,9.88,73276.0,-11.51,-12.35,-14.23,0,*67
1489611706.45,63558,9.88,73276.5,-11.49,-12.35,-14.23,0,*61
1489611707.68,63559,9.88,73282.0,-11.51,-12.39,-14.11,0,*64
1489611708.91,63560,9.88,73260.8,-11.51,-12.39,-13.51,0,*6D
1489611710.15,63561,9.88,73258.0,-11.51,-12.39,-13.51,0,*6C
1489611711.4,63562,9.88,73262.3,-11.51,-12.39,-13.83,0,*60
1489611712.62,63563,9.88,73248.8,-11.49,-12.47,-14.23,0,*6C
1489611713.88,63564,9.81,73234.8,-11.51,-12.53,-14.29,0,*6D
1489611715.15,63565,9.81,73238.3,-11.51,-12.53,-13.51,0,*64
1489611716.41,63566,9.88,73238.0,-11.51,-12.43,-13.97,0,*6C
1489611717.67,63567,9.88,73248.8,-11.55,-12.65,-15.07,0,*62
1489611718.97,63568,9.88,73246.5,-11.55,-12.71,-14.97,0,*60
1489611720.23,63569,9.88,73264.8,-11.55,-12.71,-14.37,0,*6B
1489611721.5,63570,9.88,73262.5,-11.51,-12.71,-14.65,0,*60
1489611722.77,63571,9.88,73270.8,-11.55,-12.65,-14.65,0,*60
1489611724.0,63572,9.88,73272.8,-11.57,-12.83,-15.11,0,*6B
1489611725.29,63573,9.88,73270.3,-11.55,-12.71,-14.55,0,*64
1489611726.55,63574,9.88,73284.5,-11.55,-12.57,-13.93,0,*6A
1489611727.79,63575,9.88,73250.3,-11.57,-12.53,-13.73,0,*63
1489611729.05,63576,9.88,73242.3,-11.55,-12.43,-13.33,0,*67
1489611730.29,63577,9.88,73198.3,-11.51,-12.39,-13.11,0,*6F
1489611731.56,63578,9.88,73214.0,-11.55,-12.25,-12.83,0,*63
1489611732.83,63579,9.88,73274.0,-11.55,-12.25,-13.33,0,*68
1489611734.07,63580,9.88,73288.8,-11.55,-12.21,-13.51,0,*6E
1489611735.3,63581,9.88,73294.3,-11.55,-12.39,-14.11,0,*65
1489611736.6,63582,9.88,73282.5,-11.55,-12.53,-14.97,0,*64
1489611737.88,63583,9.88,73268.5,-11.55,-12.79,-15.25,0,*65
1489611739.14,63584,9.88,73252.0,-11.55,-12.79,-15.11,0,*65
1489611740.43,63585,9.88,73270.3,-11.51,-12.71,-14.93,0,*63
1489611741.68,63586,9.81,73256.8,-11.51,-12.93,-15.53,0,*61
1489611742.92,63587,9.88,73240.0,-11.55,-12.97,-15.11,0,*66
1489611744.19,63588,9.88,73234.8,-11.55,-12.93,-15.43,0,*6A
1489611745.45,63589,9.88,73232.5,-11.55,-12.83,-14.69,0,*63
1489611746.74,63590,9.88,73218.3,-11.51,-12.71,-14.55,0,*6D
1489611748.0,63591,9.88,73246.8,-11.55,-12.71,-14.15,0,*6C
1489611749.27,63592,9.88,73270.0,-11.55,-12.65,-14.37,0,*6A
1489611750.56,63593,9.88,73258.8,-11.55,-12.71,-14.79,0,*64
1489611751.83,63594,9.88,73274.8,-11.57,-12.75,-15.01,0,*6B
1489611753.1,63595,9.88,73274.3,-11.55,-12.65,-15.25,0,*6F
1489611754.34,63596,9.88,73270.8,-11.57,-12.71,-14.29,0,*66
1489611755.57,63597,9.88,73244.5,-11.57,-12.61,-13.73,0,*6E
1489611756.78,63598,9.88,73256.3,-11.57,-12.47,-14.11,0,*66
1489611758.07,63599,9.88,73262.8,-11.55,-12.65,-14.93,0,*6F
1489611759.31,63600,9.88,73270.3,-11.57,-12.75,-15.11,0,*64
1489611760.55,63601,9.88,73264.3,-11.57,-12.89,-15.35,0,*60
1489611761.8,63602,9.88,73266.3,-11.55,-12.93,-15.25,0,*6B
1489611763.05,63603,9.88,73268.8,-11.55,-12.97,-15.49,0,*64
1489611764.29,63604,9.88,73276.8,-11.57,-12.97,-15.57,0,*6E
1489611765.51,63605,9.88,73270.3,-11.57,-13.11,-15.75,0,*60
1489611766.72,63606,9.88,73280.3,-11.57,-13.11,-15.63,0,*64
1489611767.97,63607,9.88,73270.0,-11.55,-13.19,-15.53,0,*6C
1489611769.2,63608,9.88,73276.3,-11.57,-13.15,-15.01,0,*6A
1489611770.44,63609,9.88,73278.0,-11.57,-13.11,-15.01,0,*6F
1489611771.68,63610,9.88,73288.3,-11.55,-12.97,-15.11,0,*6B
1489611772.93,63611,9.88,73276.8,-11.59,-13.11,-15.71,0,*6F
1489611774.19,63612,9.88,73276.8,-11.59,-13.11,-15.85,0,*67
1489611775.44,63613,9.88,73286.0,-11.61,-13.19,-15.81,0,*61
1489611776.68,63614,9.88,73292.3,-11.59,-13.15,-15.75,0,*6A
1489611777.95,63615,9.88,73280.3,-11.59,-13.23,-15.85,0,*61
1489611779.22,63616,9.88,73284.8,-11.59,-13.15,-15.85,0,*67
1489611780.45,63617,9.88,73282.3,-11.59,-13.15,-15.99,0,*6B
1489611781.7,63618,9.81,73292.5,-11.61,-13.19,-15.39,0,*69
1489611782.91,63619,9.88,73294.3,-11.61,-13.15,-15.75,0,*6C
1489611784.18,63620,9.88,73278.3,-11.59,-13.11,-14.83,0,*61
1489611785.39,63621,9.88,73268.0,-11.61,-12.93,-14.37,0,*6F
1489611786.66,63622,9.88,73286.8,-11.61,-12.75,-14.05,0,*65
1489611787.9,63623,9.88,73290.3,-11.61,-12.65,-14.19,0,*68
1489611789.13,63624,9.88,73290.8,-11.61,-12.65,-13.93,0,*6A
1489611790.39,63625,9.81,73308.5,-11.59,-12.57,-13.55,0,*6B
1489611791.63,63626,9.88,73306.5,-11.61,-12.47,-13.97,0,*6C
1489611792.9,63627,9.88,73300.3,-11.61,-12.53,-13.61,0,*61
1489611794.16,63628,9.88,73310.3,-11.59,-12.39,-13.01,0,*6F
1489611795.39,63629,9.88,73300.0,-11.61,-12.35,-13.47,0,*6B
1489611796.61,63630,9.88,73286.3,-11.61,-12.29,-13.19,0,*65
1489611797.85,63631,9.88,73286.0,-11.59,-12.25,-13.47,0,*68
1489611799.09,63632,9.88,73292.8,-11.59,-12.43,-14.15,0,*6B
1489611800.32,63633,9.88,73290.8,-11.59,-12.43,-14.33,0,*6E
1489611801.62,63634,9.88,73294.3,-11.59,-12.71,-14.83,0,*63
1489611802.91,63635,9.88,73298.5,-11.59,-12.61,-14.83,0,*63
1489611804.2,63636,9.88,73302.8,-11.59,-12.71,-14.97,0,*64
1489611805.47,63637,9.88,73302.3,-11.61,-12.75,-15.01,0,*64
1489611806.73,63638,9.88,73310.5,-11.61,-12.75,-15.01,0,*6B
1489611807.97,63639,9.88,73310.0,-11.61,-12.89,-15.35,0,*6E
1489611809.24,63640,9.88,73308.5,-11.59,-12.97,-15.43,0,*65
1489611810.49,63641,9.88,73318.8,-11.59,-12.97,-15.63,0,*66
1489611811.73,63642,9.88,73304.8,-11.61,-13.07,-15.43,0,*64
1489611812.96,63643,9.88,73306.8,-11.61,-13.01,-15.67,0,*65
1489611814.17,63644,9.88,73308.3,-11.61,-13.15,-15.67,0,*67
1489611815.42,63645,9.88,73288.5,-11.61,-13.07,-15.39,0,*6E
1489611816.63,63646,9.88,73312.5,-11.61,-12.93,-15.15,0,*6F
1489611817.87,63647,9.88,73314.3,-11.61,-12.93,-15.01,0,*6B
1489611819.14,63648,9.81,73310.8,-11.61,-12.79,-14.51,0,*64
1489611820.41,63649,9.88,73306.0,-11.61,-12.75,-13.33,0,*6A
1489611821.67,63650,9.88,73290.0,-11.61,-12.53,-13.29,0,*6D
1489611822.91,63651,9.88,73300.5,-11.61,-12.53,-12.89,0,*67
1489611824.15,63652,9.88,73300.8,-11.61,-12.43,-12.53,0,*62
1489611825.36,63653,9.88,73302.3,-11.61,-12.39,-12.47,0,*6B
1489611826.63,63654,9.88,73302.5,-11.61,-12.35,-12.53,0,*65
1489611827.85,63655,9.81,73300.3,-11.61,-12.29,-12.47,0,*6C
1489611829.09,63656,9.81,73292.8,-11.61,-12.35,-12.47,0,*62
1489611830.34,63657,9.81,73310.3,-11.61,-12.29,-12.53,0,*6B
1489611831.6,63658,9.81,73278.0,-11.61,-12.15,-12.65,0,*6E
1489611832.84,63659,9.88,73292.5,-11.59,-12.25,-12.39,0,*6E
1489611834.11,63660,9.88,73300.0,-11.59,-12.15,-12.39,0,*67
1489611835.4,63661,9.88,73306.0,-11.59,-12.11,-12.15,0,*6C
1489611836.61,63662,9.88,73284.5,-11.61,-12.03,-12.29,0,*68
1489611837.88,63663,9.88,73282.0,-11.59,-12.11,-12.43,0,*6D
1489611839.15,63664,9.88,73274.0,-11.59,-12.15,-12.47,0,*6A
1489611840.39,63665,9.88,73270.5,-11.59,-12.29,-12.47,0,*64
1489611841.66,63666,9.88,73280.3,-11.59,-12.25,-12.57,0,*6A
1489611842.92,63667,9.88,73270.0,-11.59,-12.29,-13.01,0,*65
1489611844.17,63668,9.88,73284.0,-11.59,-12.29,-13.23,0,*6A
1489611845.41,63669,9.88,73270.3,-11.59,-12.43,-14.15,0,*65
1489611846.66,63670,9.88,73258.5,-11.59,-12.43,-13.87,0,*61
1489611847.92,63671,9.88,73262.5,-11.59,-12.43,-13.87,0,*60
1489611849.21,63672,9.88,73268.3,-11.59,-12.57,-14.97,0,*60
1489611850.5,63673,9.88,73256.0,-11.59,-12.57,-14.75,0,*6D
1489611851.79,63674,9.88,73264.5,-11.59,-12.83,-15.43,0,*67
1489611853.06,63675,9.81,73256.0,-11.59,-12.97,-15.43,0,*63
1489611854.34,63676,9.88,73256.5,-11.59,-13.01,-15.49,0,*64
1489611855.6,63677,9.81,73254.3,-11.59,-12.89,-15.01,0,*68
1489611856.85,63678,9.88,73264.8,-11.61,-12.93,-15.39,0,*6C
1489611858.1,63679,9.88,73264.3,-11.61,-13.07,-15.39,0,*61
1489611859.34,63680,9.81,73260.8,-11.59,-13.11,-15.15,0,*65
1489611860.58,63681,9.81,73268.5,-11.61,-13.07,-14.79,0,*63
1489611861.81,63682,9.81,73270.3,-11.61,-12.79,-13.51,0,*65
1489611863.08,63683,9.88,73278.0,-11.61,-12.65,-13.33,0,*6D
1489611864.34,63684,9.88,73276.5,-11.61,-12.61,-13.61,0,*69
1489611865.58,63685,9.88,73266.0,-11.61,-12.53,-13.73,0,*6A
1489611866.83,63686,9.81,73280.3,-11.61,-12.61,-13.87,0,*63
1489611868.07,63687,9.81,73270.3,-11.61,-12.53,-13.65,0,*6F
1489611869.34,63688,9.88,73276.8,-11.59,-12.53,-13.23,0,*69
1489611870.55,63689,9.88,73278.0,-11.61,-12.43,-12.89,0,*63
1489611871.79,63690,9.81,73276.5,-11.61,-12.47,-12.65,0,*6D
1489611873.03,63691,9.81,73246.3,-11.61,-12.43,-12.53,0,*6D
1489611874.27,63692,9.88,73224.3,-11.59,-12.29,-12.39,0,*65
1489611875.51,63693,9.88,73266.3,-11.61,-12.35,-12.43,0,*6F
1489611876.73,63694,9.88,73270.8,-11.61,-12.21,-12.29,0,*61
1489611877.96,63695,9.81,73266.5,-11.61,-12.21,-12.29,0,*60
1489611879.23,63696,9.81,73268.3,-11.59,-12.11,-12.29,0,*6B
1489611880.47,63697,9.88,73248.0,-11.59,-12.03,-12.39,0,*68
1489611881.71,63698,9.88,73270.0,-11.59,-12.03,-12.43,0,*6A
1489611882.95,63699,9.88,73252.0,-11.59,-12.03,-12.89,0,*6D
1489611884.21,63700,9.88,73258.3,-11.59,-12.15,-13.15,0,*6F
1489611885.47,63701,9.88,73246.8,-11.59,-12.15,-13.15,0,*6E
1489611886.68,63702,9.81,73242.8,-11.57,-12.25,-13.15,0,*60
1489611887.9,63703,9.81,73238.0,-11.57,-12.25,-13.15,0,*61
1489611889.11,63704,9.88,73254.0,-11.57,-12.25,-13.15,0,*66
1489611890.36,63705,9.88,73244.0,-11.55,-12.21,-13.19,0,*6D
1489611891.6,63706,9.88,73246.5,-11.57,-12.25,-13.37,0,*64
1489611892.81,63707,9.88,73258.0,-11.57,-12.29,-14.11,0,*6A
1489611894.05,63708,9.81,73256.3,-11.55,-12.39,-14.23,0,*67
1489611895.26,63709,9.81,73260.0,-11.57,-12.43,-14.11,0,*68
1489611896.46,63710,9.88,73270.3,-11.57,-12.43,-13.69,0,*68
1489611897.72,63711,9.88,73248.5,-11.55,-12.39,-14.05,0,*6B
1489611898.96,63712,9.81,73278.3,-11.55,-12.39,-14.15,0,*69
1489611900.17,63713,9.88,73278.0,-11.57,-12.43,-13.55,0,*64
1489611901.41,63714,9.88,73274.3,-11.57,-12.43,-13.61,0,*64
1489611902.62,63715,9.81,73284.5,-11.57,-12.43,-13.55,0,*62
1489611903.85,63716,9.88,73300.0,-11.57,-12.43,-13.61,0,*66
1489611905.08,63717,9.81,73300.5,-11.57,-12.43,-13.87,0,*6F
1489611906.3,63718,9.88,73290.3,-11.57,-12.43,-14.15,0,*6C
1489611907.53,63719,9.81,73280.0,-11.57,-12.43,-14.43,0,*6E
1489611908.73,63720,9.88,73264.5,-11.57,-12.43,-14.69,0,*6C
1489611909.95,63721,9.88,73266.5,-11.57,-12.47,-14.33,0,*66
1489611911.18,63722,9.88,73260.8,-11.55,-12.43,-14.23,0,*62
1489611912.4,63723,9.88,73266.3,-11.57,-12.47,-14.33,0,*64
1489611913.63,63724,9.88,73274.3,-11.57,-12.57,-14.29,0,*69
1489611914.9,63725,9.88,73282.5,-11.55,-12.43,-14.05,0,*61
1489611916.11,63726,9.88,73280.8,-11.57,-12.47,-14.23,0,*60
1489611917.37,63727,9.88,73290.5,-11.57,-12.57,-14.75,0,*63
1489611918.6,63728,9.88,73296.0,-11.57,-12.57,-14.11,0,*6E
1489611919.84,63729,9.88,73300.8,-11.57,-12.47,-13.87,0,*66
1489611921.07,63730,9.88,73304.5,-11.57,-12.47,-13.37,0,*65
1489611922.33,63731,9.88,73310.3,-11.55,-12.39,-13.79,0,*65
1489611923.61,63732,9.88,73290.0,-11.55,-12.35,-13.79,0,*6A
1489611924.84,63733,9.88,73290.0,-11.57,-12.43,-13.83,0,*6D
1489611926.07,63734,9.81,73278.0,-11.57,-12.39,-13.87,0,*63
1489611927.3,63735,9.88,73284.0,-11.57,-12.39,-13.87,0,*62
1489611928.56,63736,9.88,73284.0,-11.55,-12.39,-13.83,0,*67
1489611929.77,63737,9.88,73300.3,-11.57,-12.43,-14.33,0,*65
1489611931.01,63738,9.88,73294.5,-11.57,-12.43,-14.55,0,*6A
1489611932.27,63739,9.81,73284.0,-11.57,-12.53,-14.93,0,*60
1489611933.54,63740,9.88,73294.8,-11.57,-12.71,-15.01,0,*64
1489611934.8,63741,9.81,73292.3,-11.55,-12.65,-15.11,0,*63
1489611936.07,63742,9.88,73286.0,-11.55,-12.79,-15.15,0,*69
1489611937.28,63743,9.81,73270.3,-11.57,-12.89,-15.11,0,*61
1489611938.53,63744,9.88,73274.8,-11.57,-12.97,-15.43,0,*6E
1489611939.77,63745,9.81,73260.8,-11.57,-12.97,-15.43,0,*6F
1489611941.02,63746,9.88,73256.8,-11.55,-12.93,-15.11,0,*6D
1489611942.26,63747,9.88,73266.5,-11.57,-12.97,-15.01,0,*6B
1489611943.51,63748,9.88,73272.0,-11.59,-12.83,-14.11,0,*6F
1489611944.8,63749,9.88,73280.8,-11.59,-12.83,-14.55,0,*6E
1489611946.06,63750,9.81,73280.5,-11.59,-12.89,-15.01,0,*6C
1489611947.3,63751,9.88,73284.3,-11.59,-12.89,-14.69,0,*62
1489611948.51,63752,9.81,73290.0,-11.57,-12.89,-14.69,0,*6F
1489611949.77,63753,9.81,73300.0,-11.59,-12.83,-14.15,0,*61
1489611951.04,63754,9.81,73318.5,-11.59,-12.83,-14.89,0,*63
1489611952.29,63755,9.88,73330.0,-11.59,-12.89,-14.43,0,*6E
1489611953.56,63756,9.81,73306.0,-11.61,-12.75,-13.61,0,*62
1489611954.8,63757,9.88,73306.8,-11.59,-12.47,-13.55,0,*6E
1489611956.04,63758,9.88,73300.0,-11.59,-12.47,-13.43,0,*66
1489611957.27,63759,9.88,73322.5,-11.59,-12.47,-13.15,0,*64
1489611958.51,63760,9.88,73300.3,-11.59,-12.47,-13.11,0,*6A
1489611959.75,63761,9.81,73304.5,-11.59,-12.39,-12.89,0,*62
1489611960.98,63762,9.88,73280.5,-11.61,-12.43,-12.65,0,*65
1489611962.23,63763,9.81,73284.3,-11.59,-12.29,-12.47,0,*63
1489611963.47,63764,9.88,73320.8,-11.59,-12.25,-12.47,0,*68
1489611964.74,63765,9.88,73314.5,-11.59,-12.25,-12.57,0,*68
1489611965.98,63766,9.88,73304.3,-11.59,-12.25,-12.47,0,*6A
1489611967.25,63767,9.88,73286.3,-11.59,-12.15,-12.47,0,*68
1489611968.54,63768,9.88,73276.0,-11.59,-12.15,-13.01,0,*64
1489611969.8,63769,9.88,73268.8,-11.59,-12.29,-13.87,0,*64
1489611971.07,63770,9.88,73278.5,-11.59,-12.43,-14.47,0,*6B
1489611972.33,63771,9.81,73290.3,-11.57,-12.61,-14.83,0,*6C
1489611973.59,63772,9.81,73288.8,-11.61,-12.79,-15.01,0,*68
1489611974.83,63773,9.81,73284.3,-11.57,-12.71,-14.33,0,*64
1489611976.06,63774,9.88,73310.0,-11.57,-12.57,-13.69,0,*6F
1489611977.28,63775,9.88,73236.5,-11.57,-12.47,-13.55,0,*60
1489611978.52,63776,9.81,73260.0,-11.59,-12.47,-13.23,0,*6C
1489611979.75,63777,9.88,73260.8,-11.59,-12.43,-12.89,0,*68
1489611980.99,63778,9.88,73278.8,-11.59,-12.39,-13.15,0,*6E
1489611982.23,63779,9.88,73286.5,-11.59,-12.43,-14.61,0,*66
1489611983.51,63780,9.88,73294.3,-11.59,-12.61,-14.43,0,*60
1489611984.79,63781,9.88,73278.5,-11.59,-12.71,-14.43,0,*60
1489611986.08,63782,9.88,73274.8,-11.59,-12.61,-14.47,0,*66
1489611987.32,63783,9.88,73278.0,-11.57,-12.75,-14.61,0,*68
1489611988.59,63784,9.88,73208.8,-11.59,-12.75,-14.23,0,*67
1489611989.86,63785,9.81,73270.5,-11.59,-12.71,-14.15,0,*67
1489611991.15,63786,9.88,73272.8,-11.59,-12.75,-14.75,0,*66
1489611992.42,63787,9.88,73276.5,-11.59,-12.75,-14.61,0,*62
1489611993.69,63788,9.88,73274.3,-11.59,-12.71,-14.15,0,*6A
1489611994.97,63789,9.88,73214.5,-11.59,-12.61,-13.29,0,*62
1489611996.22,63790,9.88,73214.8,-11.61,-12.53,-13.19,0,*63
1489611997.48,63791,9.88,73238.3,-11.61,-12.53,-13.29,0,*61
1489611998.72,63792,9.81,73252.0,-11.59,-12.47,-13.23,0,*66
1489611999.99,63793,9.88,73276.8,-11.59,-12.43,-13.37,0,*66
1489612001.22,63794,9.88,73280.5,-11.59,-12.43,-13.69,0,*6A
1489612002.5,63795,9.88,73278.5,-11.59,-12.57,-14.75,0,*64
1489612003.75,63796,9.88,73264.5,-11.61,-12.75,-14.61,0,*69
1489612005.01,63797,9.88,73282.8,-11.61,-12.65,-14.51,0,*6A
1489612006.28,63798,9.88,73288.0,-11.61,-12.75,-14.93,0,*6A
1489612007.54,63799,9.88,73284.3,-11.61,-12.75,-15.01,0,*61
1489612008.83,63800,9.88,73272.3,-11.59,-12.83,-15.01,0,*6C
1489612010.09,63801,9.88,73264.5,-11.59,-12.83,-14.89,0,*6C
1489612011.33,63802,9.88,73274.0,-11.61,-12.89,-14.83,0,*64
1489612012.62,63803,9.88,73272.8,-11.59,-12.83,-14.75,0,*6D
1489612013.91,63804,9.88,73256.5,-11.59,-12.83,-14.55,0,*68
1489612015.17,63805,9.81,73264.0,-11.61,-13.01,-15.35,0,*6E
1489612016.39,63806,9.88,73246.5,-11.61,-12.93,-15.07,0,*66
1489612017.63,63807,9.88,73240.8,-11.61,-12.89,-14.93,0,*60
1489612018.86,63808,9.81,73234.0,-11.61,-12.89,-14.93,0,*6F
1489612020.08,63809,9.81,73248.8,-11.61,-12.89,-14.89,0,*65
1489612021.3,63810,9.88,73252.3,-11.61,-12.89,-14.89,0,*6D
1489612022.54,63811,9.81,73244.5,-11.61,-12.93,-14.93,0,*6C
1489612023.78,63812,9.88,73254.8,-11.61,-13.01,-15.15,0,*6A
1489612025.03,63813,9.81,73266.3,-11.59,-12.97,-15.29,0,*61
1489612026.25,63814,9.81,73258.8,-11.61,-13.07,-15.53,0,*68
1489612027.49,63815,9.81,73252.3,-11.65,-13.11,-14.97,0,*63
1489612028.74,63816,9.81,73248.8,-11.65,-12.97,-14.93,0,*6B
1489612029.96,63817,9.88,73248.0,-11.65,-12.93,-14.65,0,*67
1489612031.19,63818,9.88,73254.0,-11.65,-12.83,-14.69,0,*65
1489612032.46,63819,9.81,73254.0,-11.65,-12.83,-14.97,0,*65
1489612033.69,63820,9.81,73258.8,-11.65,-12.93,-15.25,0,*66
1489612034.95,63821,9.88,73270.3,-11.67,-13.07,-15.21,0,*6D
1489612036.17,63822,9.88,73270.5,-11.65,-12.93,-15.11,0,*63
1489612037.44,63823,9.88,73270.0,-11.67,-12.97,-15.21,0,*67
1489612038.68,63824,9.81,73274.8,-11.65,-13.07,-15.21,0,*6A
1489612039.91,63825,9.88,73290.8,-11.65,-12.97,-15.53,0,*66
1489612041.15,63826,9.88,73276.3,-11.65,-12.97,-14.97,0,*6C
1489612042.4,63827,9.81,73284.3,-11.65,-12.93,-15.21,0,*65
1489612043.62,63828,9.88,73282.5,-11.65,-12.97,-15.25,0,*6A
1489612044.86,63829,9.88,73280.8,-11.67,-13.07,-15.67,0,*67
1489612046.13,63830,9.81,73264.8,-11.67,-13.11,-15.57,0,*6B
1489612047.4,63831,9.81,73274.5,-11.67,-13.11,-15.43,0,*6F
1489612048.67,63832,9.81,73274.3,-11.67,-13.19,-15.81,0,*6A
1489612049.94,63833,9.81,73276.0,-11.67,-13.23,-15.85,0,*66
1489612051.21,63834,9.81,73288.0,-11.67,-13.33,-15.95,0,*61
1489612052.46,63835,9.81,73296.0,-11.67,-13.23,-14.65,0,*6F
1489612053.72,63836,9.81,73294.3,-11.67,-13.07,-14.05,0,*6C
1489612054.98,63837,9.81,73280.0,-11.67,-13.07,-13.83,0,*64
1489612056.22,63838,9.88,73268.3,-11.67,-12.97,-13.47,0,*6B
1489612057.5,63839,9.81,73244.8,-11.67,-12.83,-13.37,0,*68
1489612058.77,63840,9.81,73234.5,-11.67,-12.71,-13.11,0,*6F
1489612060.01,63841,9.81,73236.0,-11.69,-12.61,-13.11,0,*61
1489612061.24,63842,9.81,73234.3,-11.69,-12.61,-13.23,0,*63
1489612062.5,63843,9.81,73250.5,-11.69,-12.61,-13.01,0,*62
1489612063.77,63844,9.81,73254.3,-11.69,-12.57,-12.75,0,*62
1489612065.01,63845,9.88,73222.3,-11.69,-12.43,-12.61,0,*63
1489612066.28,63846,9.81,73226.3,-11.67,-12.47,-12.57,0,*6F
1489612067.52,63847,9.81,73232.5,-11.65,-12.39,-12.57,0,*65
1489612068.76,63848,9.81,73204.3,-11.65,-12.25,-12.57,0,*67
1489612070.03,63849,9.81,73198.0,-11.67,-12.25,-12.65,0,*65
1489612071.3,63850,9.81,73238.3,-11.67,-12.25,-12.71,0,*68
1489612072.57,63851,9.81,73256.0,-11.67,-12.21,-12.65,0,*68
1489612073.82,63852,9.81,73284.3,-11.67,-12.21,-13.07,0,*6E
1489612075.04,63853,9.88,73290.0,-11.65,-12.21,-13.23,0,*6B
1489612076.28,63854,9.88,73288.0,-11.65,-12.25,-13.37,0,*6D
1489612077.52,63855,9.81,73278.3,-11.65,-12.39,-13.83,0,*6E
1489612078.76,63856,9.81,73262.8,-11.65,-12.47,-14.05,0,*6D
1489612080.03,63857,9.81,73272.5,-11.65,-12.53,-13.97,0,*65
1489612081.3,63858,9.81,73278.0,-11.65,-12.53,-13.97,0,*6A
1489612082.54,63859,9.81,73286.3,-11.65,-12.53,-13.93,0,*6F
1489612083.76,63860,9.88,73276.5,-11.65,-12.47,-13.55,0,*6A
1489612084.99,63861,9.81,73278.0,-11.65,-12.39,-13.83,0,*69
1489612086.23,63862,9.81,73270.8,-11.65,-12.53,-14.69,0,*65
1489612087.51,63863,9.88,73278.0,-11.65,-12.53,-14.79,0,*65
1489612088.77,63864,9.81,73292.0,-11.65,-12.71,-14.43,0,*6B
1489612090.0,63865,9.81,73300.8,-11.65,-12.57,-13.93,0,*64
1489612091.24,63866,9.88,73328.5,-11.65,-12.57,-14.23,0,*6B
1489612092.51,63867,9.81,73340.3,-11.65,-12.57,-13.97,0,*62
1489612093.75,63868,9.81,73276.0,-11.61,-12.53,-13.65,0,*60
1489612094.99,63869,9.81,73276.8,-11.61,-12.53,-13.65,0,*61
1489612096.25,63870,9.81,73268.3,-11.65,-12.65,-13.37,0,*6F
1489612097.49,63871,9.81,73290.5,-11.65,-12.39,-13.33,0,*63
1489612098.74,63872,9.81,73284.0,-11.65,-12.53,-14.33,0,*6B